Estación de Las Puertas
Ultimos registro cada 15 minutos 56
| N° | Estación | Fecha / Hora | Temperatura | Humedad | Lluvia | Velocidad | Dirección | Radiación | Presion |
| 56 | Las Puertas | 04-05-2026 13:45 | 27,9 | 19 | 0 | 0,9 | 290 | 483 | 1012,8 |
| 55 | Las Puertas | 04-05-2026 13:30 | 27,4 | 20 | 0 | 0 | 288 | 503 | 1013,1 |
| 54 | Las Puertas | 04-05-2026 13:15 | 27,3 | 21 | 0 | 0,4 | 292 | 526 | 1013,5 |
| 53 | Las Puertas | 04-05-2026 13:00 | 26,8 | 22 | 0 | 2,2 | 271 | 527 | 1013,7 |
| 52 | Las Puertas | 04-05-2026 12:45 | 26,4 | 24 | 0 | 0 | 315 | 485 | 1014 |
| 51 | Las Puertas | 04-05-2026 12:30 | 26 | 25 | 0 | 0,9 | 204 | 522 | 1014,2 |
| 50 | Las Puertas | 04-05-2026 12:15 | 25,6 | 25 | 0 | 0 | 269 | 510 | 1014,3 |
| 49 | Las Puertas | 04-05-2026 12:00 | 25,1 | 26 | 0 | 1,3 | 273 | 510 | 1014,5 |
| 48 | Las Puertas | 04-05-2026 11:45 | 24,4 | 30 | 0 | 0 | 181 | 517 | 1014,6 |
| 47 | Las Puertas | 04-05-2026 11:30 | 23,8 | 31 | 0 | 0 | 186 | 438 | 1014,8 |
| 46 | Las Puertas | 04-05-2026 11:15 | 22,8 | 32 | 0 | 0 | 196 | 385 | 1014,9 |
| 45 | Las Puertas | 04-05-2026 11:00 | 21,9 | 35 | 0 | 0 | 252 | 446 | 1015,1 |
| 44 | Las Puertas | 04-05-2026 10:45 | 20,8 | 39 | 0 | 0 | 263 | 420 | 1015,3 |
| 43 | Las Puertas | 04-05-2026 10:30 | 19,7 | 40 | 0 | 0 | 240 | 385 | 1015,5 |
| 42 | Las Puertas | 04-05-2026 10:15 | 18,9 | 42 | 0 | 0 | 205 | 216 | 1015,4 |
| 41 | Las Puertas | 04-05-2026 10:00 | 18,1 | 46 | 0 | 0 | 208 | 241 | 1015,6 |
| 40 | Las Puertas | 04-05-2026 09:45 | 16,9 | 48 | 0 | 0 | 201 | 292 | 1015,7 |
| 39 | Las Puertas | 04-05-2026 09:30 | 15,7 | 48 | 0 | 0 | 165 | 271 | 1015,8 |
| 38 | Las Puertas | 04-05-2026 09:15 | 14,3 | 50 | 0 | 0 | 86 | 188 | 1016,1 |
| 37 | Las Puertas | 04-05-2026 09:00 | 12,7 | 55 | 0 | 0 | 67 | 225 | 1016 |
| 36 | Las Puertas | 04-05-2026 08:45 | 10,9 | 61 | 0 | 0 | 30 | 116 | 1015,9 |
| 35 | Las Puertas | 04-05-2026 08:30 | 9,1 | 64 | 0 | 0 | 101 | 74 | 1015,8 |
| 34 | Las Puertas | 04-05-2026 08:15 | 9 | 64 | 0 | 0 | 137 | 33 | 1015,8 |
| 33 | Las Puertas | 04-05-2026 08:00 | 8,7 | 65 | 0 | 0 | 104 | 25 | 1015,8 |
| 32 | Las Puertas | 04-05-2026 07:45 | 8,8 | 64 | 0 | 0 | 85 | 12 | 1015,7 |
| 31 | Las Puertas | 04-05-2026 07:30 | 9,2 | 63 | 0 | 0,9 | 92 | 7 | 1015,8 |
| 30 | Las Puertas | 04-05-2026 07:15 | 8,7 | 65 | 0 | 0 | 86 | 0 | 1015,7 |
| 29 | Las Puertas | 04-05-2026 07:00 | 8,8 | 64 | 0 | 0,9 | 120 | 0 | 1015,6 |
| 28 | Las Puertas | 04-05-2026 06:45 | 9,2 | 63 | 0 | 0,9 | 108 | 0 | 1015,7 |
| 27 | Las Puertas | 04-05-2026 06:30 | 9,3 | 64 | 0 | 0,4 | 115 | 0 | 1015,6 |
| 26 | Las Puertas | 04-05-2026 06:15 | 9,4 | 64 | 0 | 0,9 | 115 | 0 | 1015,6 |
| 25 | Las Puertas | 04-05-2026 06:00 | 9,6 | 64 | 0 | 0 | 136 | 0 | 1015,5 |
| 24 | Las Puertas | 04-05-2026 05:45 | 10 | 63 | 0 | 0,9 | 69 | 0 | 1015,5 |
| 23 | Las Puertas | 04-05-2026 05:30 | 9,7 | 65 | 0 | 0,9 | 93 | 0 | 1015,3 |
| 22 | Las Puertas | 04-05-2026 05:15 | 9,7 | 65 | 0 | 0 | 75 | 0 | 1015,2 |
| 21 | Las Puertas | 04-05-2026 05:00 | 9,6 | 66 | 0 | 0,9 | 100 | 0 | 1015,1 |
| 20 | Las Puertas | 04-05-2026 04:45 | 8,8 | 68 | 0 | 0 | 6 | 0 | 1014,9 |
| 19 | Las Puertas | 04-05-2026 04:30 | 9,5 | 66 | 0 | 0 | 356 | 0 | 1014,9 |
| 18 | Las Puertas | 04-05-2026 04:15 | 9,9 | 65 | 0 | 0 | 356 | 0 | 1014,8 |
| 17 | Las Puertas | 04-05-2026 04:00 | 9,4 | 67 | 0 | 0 | 98 | 0 | 1014,9 |
| 16 | Las Puertas | 04-05-2026 03:45 | 9,1 | 67 | 0 | 0 | 90 | 0 | 1014,8 |
| 15 | Las Puertas | 04-05-2026 03:30 | 9,4 | 67 | 0 | 0 | 90 | 0 | 1015 |
| 14 | Las Puertas | 04-05-2026 03:15 | 9,6 | 67 | 0 | 0 | 90 | 0 | 1015,2 |
| 13 | Las Puertas | 04-05-2026 03:00 | 10,1 | 65 | 0 | 0 | 90 | 0 | 1015,2 |
| 12 | Las Puertas | 04-05-2026 02:45 | 10,6 | 63 | 0 | 0 | 90 | 0 | 1015,6 |
| 11 | Las Puertas | 04-05-2026 02:30 | 11,4 | 61 | 0 | 0 | 90 | 0 | 1015,6 |
| 10 | Las Puertas | 04-05-2026 02:15 | 12,3 | 60 | 0 | 0 | 124 | 0 | 1015,8 |
| 9 | Las Puertas | 04-05-2026 02:00 | 12,7 | 60 | 0 | 0,4 | 84 | 0 | 1015,9 |
| 8 | Las Puertas | 04-05-2026 01:45 | 13,3 | 58 | 0 | 0 | 62 | 0 | 1016 |
| 7 | Las Puertas | 04-05-2026 01:30 | 13,2 | 59 | 0 | 1,8 | 105 | 0 | 1016,1 |
| 6 | Las Puertas | 04-05-2026 01:15 | 12,4 | 60 | 0 | 1,3 | 102 | 0 | 1016,2 |
| 5 | Las Puertas | 04-05-2026 01:00 | 13,1 | 58 | 0 | 1,3 | 138 | 0 | 1016,3 |
| 4 | Las Puertas | 04-05-2026 00:45 | 12,9 | 59 | 0 | 2,2 | 92 | 0 | 1016,4 |
| 3 | Las Puertas | 04-05-2026 00:30 | 12,7 | 60 | 0 | 0 | 85 | 0 | 1016,6 |
| 2 | Las Puertas | 04-05-2026 00:15 | 12,8 | 60 | 0 | 0 | 106 | 0 | 1016,7 |
| 1 | Las Puertas | 04-05-2026 00:00 | 12,6 | 59 | 0 | 0 | 73 | 0 | 1016,8 |